Regional Weather Roundup
Issued by NWS Newport/Morehead, NC

Current Version | Previous Version | Text Only | Print | Product List | Glossary On
Versions: 1 2 3 4 5 6 7 8 9 10 11 12 13 14 15 16 17 18 19 20 21 22 23 24 25 26 27 28 29 30 31 32 33 34 35 36 37 38 39 40 41 42 43 44 45 46 47 48 49 50
545
ASUS42 KMHX 271925
RWRMHX
WEATHER ROUNDUP FOR EASTERN NORTH CAROLINA
NATIONAL WEATHER SERVICE NEWPORT/MOREHEAD CITY NC
300 PM EDT THU JUL 27 2017

NOTE: "FAIR" INDICATES FEW OR NO CLOUDS BELOW 12,000 FEET
WITH NO SIGNIFICANT WEATHER AND/OR OBSTRUCTIONS TO VISIBILITY

NCZ015>017-031-032-045>047-102-103-272000-
NORTH COAST

CITY           SKY/WX    TMP DP  RH WIND       PRES   REMARKS
EDENTON        SUNNY     88  72  58 CALM      29.98F
ELIZABETH CITY SUNNY     86  73  65 SW10      29.97F
KITTY HAWK     PTCLDY    85  69  57 CALM      29.97F
MANTEO         CLOUDY    82  71  70 S14       29.98F

$$

NCZ045>047-081-094-103-104-272000-
CENTRAL COAST

CITY           SKY/WX    TMP DP  RH WIND       PRES   REMARKS
FRISCO         SUNNY     86  69  56 S7        30.01F

$$

NCZ095-097-098-100-101-272000-
SOUTHERN COAST

CITY           SKY/WX    TMP DP  RH WIND       PRES   REMARKS
BEAUFORT       SUNNY     85  73  67 S10       30.00F
CEDAR ISLAND   NOT AVBL
JACKSONVILLE   SUNNY     88  70  55 SE12      29.98F
PINEY ISLAND   PTCLDY   N/A N/A N/A S14G20    29.99F
WILMINGTON     SUNNY     87  69  54 S10       29.99F


$$

NCZ011>013-027>030-043-044-078>080-089-090>093-098-272000-
COASTAL PLAIN

CITY           SKY/WX    TMP DP  RH WIND       PRES   REMARKS
AHOSKIE          N/A     83  72  67 S3        29.97F
CLINTON        CLOUDY    90  69  49 SW6       29.98F
ELIZABETHTOWN  NOT AVBL
GOLDSBORO      MOSUNNY   92  66  41 SW7G16    29.96F
GREENVILLE     CLOUDY    90  68  48 SW6       29.98F
HAVELOCK       MOSUNNY   87  68  52 S12G20    30.00F
KENANSVILLE    PTSUNNY   90  68  48 S3        29.98F
KINSTON        MOSUNNY   91  64  40 S7        29.98F
NEW BERN       MOSUNNY   89  71  55 VRB7      29.99F
RICHLANDS      MOSUNNY   89  70  53 S9        29.99F
ROCKY MOUNT    MOSUNNY   90  70  51 SW8       29.97F
WASHINGTON     MOSUNNY   88  69  52 S5        29.97F
WHITEVILLE     MOSUNNY   90  70  51 SE6       29.98F

$$

AMZ130-135-150-152-154-156-158-170-250-252-270-ANZ085-086-088-633-658-670-272000-
MARINE OBSERVATIONS

STATION/POSITION TIME  TEMP    WIND        PRES    WAVE   SWELL
                       AIR SEA DIR/SP/G            HT/PER HT/PER
                 (UTC) (F)     (DEG/KT/KT) (MB)    (FT/S) (FT/S)
CHESAPEAKE LIGHT NOT AVBL
64 E VA BEACH    1850   77 79  190/ 10/ 12 1015.9    3/ 9   2/ 9
DUCK             1900   78 73  130/ 12/ 13 1014.5
2 E DUCK         1900      75                N/A     2/ 7
OREGON INLET     1900   82 80  180/ 11/ 14 1015.3
13E OREGON INLT  1818      79                N/A     2/ 6   2/ 6
HATTERAS CG      1900   83 79  190/  4/  8 1016.1
DIAMOND BUOY     1850   82 87  200/  6/ 10 1016.3    3/ 7   3/ 7
CAPE LOOKOUT     1900   83     170/  8/ 11 1015.7
BEAUFORT LAB     1900   82 80  180/ 11/ 12 1015.3
30 SE NEW RVR IN 1908   82 85  180/  6/ 10 1016.1
30 SE NEW RVR IN 1913      85                N/A     2/ 8
27 SE WRIGHTSVLE 1908   83 84  160/  8/ 10 1015.9
5 SE WRIGHTSVLE  1908   82 83  180/ 12/ 16 1015.5
225 S CAPE HAT   1850   82 83  310/ 10/ 12 1016.2    3/ 7   2/ 7
41 SE CHARLESTON 1910   81 83  250/  2/  4 1015.8

$$




USA.gov is the U.S. government's official web portal to all federal, state and local government web resources and services.